Regional Weather Roundup
Issued by NWS

Home | Current Version | Previous Version | Graphics & Text | Print | Product List | Glossary On
Versions: 1 2 3 4 5 6 7 8 9 10 11 12 13 14 15 16 17 18 19 20 21 22 23 24 25 26 27 28 29 30 31 32 33 34 35 36 37 38 39 40 41 42 43 44 45 46 47 48 49 50
328
ASUS43 KLMK 200702
RWRKY
KENTUCKY REGIONAL WEATHER ROUNDUP
NATIONAL WEATHER SERVICE LOUISVILLE KY
300 AM EDT WED SEP 20 2017

NOTE "FAIR" INDICATES FEW OR NO CLOUDS BELOW 12,000 FEET
WITH NO SIGNIFICANT WEATHER AND/OR OBSTRUCTIONS TO VISIBILITY.

KYZ001>023-026-027-061>063-070>075-200800-
WESTERN AND SOUTH CENTRAL KENTUCKY

CITY           SKY/WX    TMP DP  RH WIND       PRES   REMARKS
PADUCAH        CLEAR     76  67  73 S5        29.91F
HENDERSON      CLEAR     70  69  97 S5        29.93F
OWENSBORO      CLEAR     70  68  93 S5        29.95S
HOPKINSVILLE   CLEAR     70  68  95 CALM      29.95S
BOWLING GREEN  PTCLDY    67  67 100 CALM      29.97S FOG
GLASGOW        CLEAR    N/A N/A N/A CALM      29.98S
$$

KYZ024-025-028>034-038-045-046-053-200800-
NORTH CENTRAL KENTUCKY

CITY           SKY/WX    TMP DP  RH WIND       PRES   REMARKS
LOUISVILLE/SDF CLEAR     69  67  93 SE3       29.96S
LOUISVILLE/LOU FOG       66  66 100 CALM      29.97S VSB 1/2
FORT KNOX      FOG       65  65 100 CALM      29.96S VSB 1/4
$$

KYZ035>037-039>044-047>052-055>060-089>105-200800-
NORTHEAST KENTUCKY

CITY           SKY/WX    TMP DP  RH WIND       PRES   REMARKS
LEXINGTON      CLEAR     66  64  93 S3        29.99S FOG
COVINGTON      CLEAR     66  66 100 CALM      29.97F FOG
FRANKFORT      CLEAR     64  61  90 CALM      29.97S
$$

KYZ054-064>069-076>088-106>120-200800-
SOUTHEAST KENTUCKY

CITY           SKY/WX    TMP DP  RH WIND       PRES   REMARKS
JACKSON        FOG       67  66  97 CALM      30.01S VSB 1/4
LONDON         CLEAR     65  63  93 CALM      30.01S
SOMERSET       NOT AVBL
MIDDLESBORO    CLEAR     63  63 100 CALM      30.03S
MONTICELLO     SUNNY     61  61 100 NE9       30.02S FOG
$$





USA.gov is the U.S. government's official web portal to all federal, state and local government web resources and services.